sat.trackr.live / text

‹ back to catalog

RROCI-2

NORAD 59106 · 2024-043J

PAYLOAD ACTIVE UNKNOWN

§ Identity

Operator
Country
US
Launch date
2024-03-04
Launch site
AFWTR
Launch vehicle
Mass (kg)
RCS (m²)

External: N2YO · Heavens-Above · Gunter

§ Orbital elements

Epoch: 2026-05-24T21:40:27.498720Z

Period
96.01 min
Inclination
97.8409°
Eccentricity
0.0010215
Mean motion
14.99785973 rev/d
Perigee alt
560.5 km
Apogee alt
574.7 km
Semi-major
6,945.7 km
B*
1.7552e-4
RAAN
277.4809°
Arg perigee
95.5990°
Mean anomaly
264.6398°
Rev number
12,127

§ Raw data

RROCI-21 59106U 24043J   26144.90309605  .00002111  00000+0  17552-3 0  99902 59106  97.8409 277.4809 0010215  95.5990 264.6398 14.99785973121276

JSON: /api/v1/satellites/59106 · /tle

For live sub-satellite position, see the globe view (requires WebGL).

§ Visibility from observer

Set your observer location to see the next 7 days of passes ≥ 10°. The values pass through the URL so the page stays shareable.

No JS? Fill the form by hand. The geolocation button needs JavaScript.

§ Radio — SatNOGS DB

ModeDescriptionDownlinkUplink
QPSK Mode S - QPSK 2Mbps - Downlink 2.217 GHz
OQPSK Mode X - OQPSK 100Mbps - Downlink 8.125 GHz

2 transmitters · refreshed weekly from db.satnogs.org